Weather observations for the past three days for
Gunnison, Gunnison-Crested Butte Regional Airport
Imperial (Metric)
Date Time (mdt) Wind (mph) Vis. (mi.) Weather Sky Cond. Temperature (ºF) Relative Humidity Wind Chill (°F) Heat Index (°F) Pressure Precipitation (in)
Air Dwpt 6 hour altimeter (in) sea level (mb) 1 hr 3 hr 6 hr
Max. Min.
19 04:56 NW 3 10.00 Fair CLR 55 48.9 80% 30.49 1022.2
19 03:56 Calm 10.00 Fair CLR 54 48.9 83% 30.49 1022.7
19 02:56 N 6 10.00 Fair CLR 55.9 48 75% 30.49 1022.5
19 01:56 N 7 10.00 Fair CLR 57 48 72% 30.49 1023.0
19 00:56 N 7 10.00 Fair CLR 60.1 48 65% 30.49 1023.0
18 23:56 Vrbl 3 10.00 Fair CLR 61 48 82 61 63% 30.5 1023.6
18 22:56 NE 9 10.00 A Few Clouds FEW110 64 48 56% 30.49 1022.8
18 21:56 E 16 G 23 10.00 Mostly Cloudy BKN110 64.9 46 51% 30.48 1022.7
18 20:56 E 17 G 23 10.00 Partly Cloudy SCT110 64.9 48 54% 30.45 1022.9
18 19:56 SE 26 G 33 10.00 Light Rain and Windy SCT075 OVC100 71.1 46 41% 30.4 1020.7
18 18:56 N 9 10.00 A Few Clouds FEW110 71.1 46.9 42% 30.39 1020.6
18 17:56 NW 7 10.00 Fair CLR 82 37.9 82.9 70 21% 80 30.34 1017.7
18 16:56 NW 10 10.00 Fair CLR 82 39.9 22% 80 30.36 1017.9
18 15:56 NW 8 10.00 Fair CLR 82 37.9 21% 80 30.37 1018.1
18 14:56 S 3 9.00 Fair CLR 82 45 27% 80 30.39 1019.2
18 13:56 SW 5 10.00 Fair CLR 77 46 33% 78 30.42 1020.7
18 12:56 Vrbl 5 10.00 Fair CLR 73.9 48.9 41% 30.46 1022.0
18 11:56 SE 3 10.00 A Few Clouds FEW120 71.1 46.9 73 50 42% 30.48 1022.8
18 10:56 Calm 10.00 Fair CLR 70 45 41% 30.49 1022.8
18 09:56 Calm 10.00 Fair CLR 66 46.9 50% 30.51 1023.2
18 08:56 N 6 10.00 Fair CLR 59 46 62% 30.52 1024.4
18 07:56 Calm 10.00 Fair CLR 55.9 44.1 65% 30.53 1024.5
18 06:56 NE 6 10.00 Fair CLR 52 43 72% 30.51 1023.7
18 05:56 N 6 10.00 Fair CLR 52 42.1 61 52 69% 30.49 1022.9
18 04:56 N 10 10.00 Fair CLR 53.1 43 69% 30.48 1022.2
18 03:56 N 10 10.00 Fair CLR 55 42.1 62% 30.47 1021.9
18 02:56 NE 7 10.00 Fair CLR 54 42.1 64% 30.46 1021.8
18 01:56 N 14 10.00 Fair CLR 55 43 64% 30.45 1021.1
18 00:56 N 12 10.00 Fair CLR 57 44.1 62% 30.45 1021.3
17 23:56 NW 8 10.00 Fair CLR 61 45 82 61 56% 30.44 1020.8
17 22:56 N 9 10.00 Fair CLR 64.9 46 51% 30.42 1020.4
17 21:56 NE 9 10.00 Fair CLR 69.1 44.1 41% 30.41 1020.3
17 20:56 W 3 10.00 Fair CLR 70 43 38% 30.38 1019.7
17 19:56 NW 6 10.00 Fair CLR 75.9 41 29% 77 30.35 1018.8
17 18:56 NW 12 10.00 Fair CLR 81 37 21% 79 30.33 1017.7
17 17:56 Vrbl 6 10.00 Fair CLR 82 39.9 82.9 73.9 22% 80 30.33 1017.9
17 16:56 NE 9 10.00 Fair CLR 82 36 19% 80 30.34 1018.2
17 15:56 N 8 10.00 Partly Cloudy SCT120 81 39 22% 79 30.36 1018.7
17 14:56 NW 8 10.00 Partly Cloudy SCT100 79 42.1 27% 78 30.38 1019.2
17 13:56 E 8 10.00 Fair CLR 80.1 41 25% 79 30.4 1019.5
17 11:56 Calm 10.00 Fair CLR 73.9 44.1 73.9 46 34% 30.44 1021.3
17 10:56 Calm 10.00 Fair CLR 68 44.1 42% 30.46 1022.7
17 09:56 Calm 10.00 Fair CLR 62.1 46 56% 30.48 1023.9
17 08:56 Calm 10.00 Fair CLR 57 45 64% 30.49 1024.7
17 07:56 Calm 10.00 Fair CLR 52 45 77% 30.5 1025.2
17 06:56 N 3 10.00 Fair CLR 48 43 83% 30.49 1024.8
17 05:56 Calm 10.00 Fair CLR 46.9 44.1 60.1 46.9 90% 30.47 1023.9
17 04:56 NW 5 10.00 Fair CLR 46.9 45 93% 45 30.45 1022.9
17 03:56 S 3 10.00 Fair CLR 48.9 46 90% 30.43 1022.6
17 02:56 NE 7 10.00 Fair CLR 52 45 77% 30.43 1021.5
17 01:56 N 7 10.00 Fair CLR 53.1 45 74% 30.42 1021.6
17 00:56 NW 8 10.00 Fair CLR 55 48 77% 30.42 1020.8
16 23:56 NE 8 10.00 Fair CLR 60.1 48 75.9 59 65% 30.42 1020.2
16 22:56 N 6 10.00 Fair CLR 60.1 48.9 67% 30.42 1021.5
16 21:56 S 3 10.00 Overcast OVC120 61 50 67% 30.41 1021.7
16 20:56 NE 9 10.00 Fair CLR 64 51.1 63% 30.38 1020.8
16 19:56 SE 9 10.00 Overcast OVC090 66.9 48.9 53% 30.37 1020.7
16 18:56 NE 12 10.00 Mostly Cloudy BKN110 71.1 50 47% 30.33 1019.3
16 17:56 N 16 G 25 10.00 Mostly Cloudy BKN090 73.9 44.1 78.1 69.1 34% 30.31 1018.2 0.07 0.07
16 16:56 N 8 10.00 Mostly Cloudy BKN100 BKN120 75.9 48 37% 78 30.32 1018.0
16 15:56 E 6 10.00 Mostly Cloudy BKN085 72 55 55% 30.33 1018.8
16 14:56 NE 13 10.00 Partly Cloudy FEW090 SCT110 75 46 36% 77 30.33 1018.4
16 13:56 N 10 10.00 Partly Cloudy SCT095 73 48 41% 30.34 1018.3
16 12:56 NE 10 10.00 Fair CLR 77 48.9 37% 78 30.35 1018.3
16 11:56 Vrbl 3 10.00 Fair CLR 73 46 73 46.9 38% 30.38 1019.7
16 10:56 Vrbl 3 10.00 Fair CLR 66 48.9 54% 30.4 1021.5
16 09:56 Calm 10.00 Fair CLR 61 48 63% 30.41 1021.9
16 08:56 Calm 10.00 Fair CLR 57 46.9 69% 30.42 1022.8
16 07:56 Calm 10.00 Fair CLR 52 46.9 83% 30.44 1023.5
16 06:56 Calm 10.00 Fair CLR 48 46 93% 30.42 1023.7
16 05:56 Calm 10.00 Fair CLR 46.9 46 55 46 97% 30.41 1022.3
Date Time (mdt) Wind (mph) Vis. (mi.) Weather Sky Cond. Air Dwpt Max. Min. Relative Humidity Wind Chill (°F) Heat Index (°F) altimeter (in) sea level (mb) 1 hr 3 hr 6 hr
6 hour
Temperature (ºF) Pressure Precipitation (in)